User: anonymous   Login
Location: Brunembert
(50.7122°N, 1.8935°E)
Time: 02:47:39
(UTC+00:00)
Language:

COSMOS 2455 - Orbit

View from above orbital plane
View from above orbital plane
View from above satellite
View from above satellite

Ground track
Ground track

The orbit data is extracted from the following two-line orbital elements,

1 36095U 09063A   21174.75393631 -.00000065  00000-0  71945-5 0  9996
2 36095  67.1484 356.5659 0003935 290.5567  69.5095 13.96770081591201
Epoch (UTC): 23 June 2021 18:05:40
Eccentricity: 0.0003935
inclination: 67.1484°
perigee height: 902 km
apogee height: 908 km
right ascension of ascending node: 356.5659°
argument of perigee: 290.5567°
revolutions per day: 13.96770081
mean anomaly at epoch: 69.5095°
orbit number at epoch: 59120

The dashed part of the orbit path shows where the satellite is in the earth's shadow,  

DLR